GFSGL_250_spd_159.txt.gz
Wind_Speed
123 123 122 123 125 128 128 123 120 117 118 118 121 121 122 121 121 118 115 110 105 102 100 99 100 98 98 99 105 96 98 100 96 96 100 97 96 92 83 83 90 81 84
125 126 129 131 134 131 124 124 126 124 122 117 117 117 117 118 118 119 117 114 111 106 102 100 99 102 99 98 104 97 98 97 98 97 96 97 94 92 73 76 76 82 85
131 135 135 133 131 131 130 130 133 119 111 108 107 106 107 106 108 112 114 114 116 109 107 105 103 105 102 102 103 98 96 90 93 103 79 93 89 80 81 88 91 80 78
140 138 137 137 137 136 137 132 122 110 104 102 97 98 98 99 101 103 106 108 114 115 111 110 106 108 105 107 104 100 98 98 92 84 88 81 89 80 84 82 78 75 75
140 142 143 143 142 137 124 113 110 106 105 103 98 97 99 100 100 102 103 103 101 110 116 111 115 108 108 109 110 104 98 97 98 87 99 92 93 78 83 88 81 79 89
144 146 145 139 128 118 111 108 109 107 105 103 100 96 96 100 102 102 102 101 97 105 104 105 112 110 109 109 112 109 102 98 93 94 84 99 96 91 96 85 93 96 88
147 138 125 117 113 111 112 110 107 103 99 98 97 96 93 96 101 104 104 101 100 102 103 104 105 105 109 108 113 112 108 103 98 98 95 90 89 85 88 90 87 82 80
128 118 112 111 110 111 108 103 98 95 94 95 96 94 92 94 96 99 103 103 101 102 103 104 102 104 102 111 111 113 110 105 101 92 93 96 101 107 98 94 95 95 95
112 110 110 112 110 104 99 93 92 90 90 89 90 92 93 95 96 97 100 102 104 102 103 104 102 101 103 106 114 112 111 103 105 106 103 106 103 103 101 88 98 103 103
113 114 110 104 99 96 95 92 90 90 89 90 91 92 93 94 96 98 100 100 101 103 103 102 102 100 101 103 110 114 111 107 113 115 107 102 100 99 102 113 116 110 110
110 102 98 94 94 94 94 93 93 91 91 92 93 94 96 97 99 101 102 100 100 98 100 102 101 100 100 103 106 109 112 111 117 114 110 110 111 107 103 108 106 107 102
97 94 95 95 95 95 96 97 99 98 98 99 98 98 100 102 104 103 103 101 99 97 96 98 99 100 101 103 105 107 110 112 114 118 116 122 117 111 114 110 104 104 101
95 95 96 97 97 99 101 102 105 106 106 107 107 107 106 106 106 105 103 101 97 93 94 92 95 99 100 102 104 107 110 110 111 117 119 118 120 112 105 111 109 105 101
95 96 97 97 99 102 104 108 109 109 109 111 112 114 113 110 107 102 99 95 91 88 86 86 93 96 100 101 104 106 109 110 113 116 115 125 125 127 118 110 112 115 111
95 97 98 100 103 106 110 113 115 116 115 113 112 110 108 106 103 100 98 96 92 90 85 88 95 96 94 98 101 104 107 110 112 115 114 119 120 121 134 125 121 110 104
97 99 102 104 107 110 111 114 118 116 115 112 106 99 96 94 92 94 96 96 95 97 93 91 95 94 94 95 97 102 105 109 113 114 114 111 114 119 120 125 130 125 121
99 102 105 107 110 112 114 114 113 118 118 116 108 102 95 88 86 87 86 91 97 100 98 96 95 94 88 94 96 98 102 106 110 116 115 113 114 116 117 118 118 119 120
103 106 108 111 113 113 112 111 109 108 106 110 110 104 100 97 92 85 83 89 94 95 98 98 95 91 89 85 92 95 98 102 106 110 116 116 116 114 116 116 111 110 108
109 111 112 112 111 110 107 104 101 99 98 99 99 99 96 95 96 93 83 84 92 95 92 95 96 89 87 85 84 89 93 98 102 107 110 117 118 118 117 117 119 117 112
111 111 109 106 103 100 98 97 97 95 94 95 93 89 89 88 88 86 81 82 86 93 92 90 92 91 87 89 87 87 88 91 97 102 107 109 118 122 120 117 115 117 120
104 103 100 99 97 97 96 96 94 93 91 91 90 87 82 80 81 80 76 76 80 84 90 88 86 85 87 90 91 91 91 91 92 96 101 107 110 114 122 123 122 121 121
97 97 97 97 97 96 95 93 91 89 88 86 85 84 80 76 73 74 75 73 73 78 83 88 86 84 83 86 88 90 91 92 94 96 98 103 107 111 114 123 127 128 126
94 93 92 92 92 92 91 88 85 84 82 81 80 79 78 73 70 68 69 70 69 70 78 85 87 86 82 80 83 86 90 93 96 98 101 103 105 109 110 114 116 122 127
90 90 90 90 88 87 84 82 80 78 76 76 75 74 73 72 70 66 65 66 66 67 70 77 87 90 88 86 83 82 83 88 92 95 98 102 106 108 111 111 113 116 120
87 86 85 83 81 80 79 78 76 74 71 69 69 70 70 68 67 65 63 63 63 65 67 71 77 85 89 88 87 85 84 85 88 91 93 96 98 102 108 110 112 114 117
84 82 79 77 76 75 74 73 72 70 69 68 66 66 65 65 64 62 61 62 63 63 65 68 72 76 82 87 87 85 83 81 84 89 91 93 92 95 98 100 106 111 115

GFSGL_250_spd_162.txt.gz
Wind_Speed
120 122 123 125 127 128 122 118 116 115 116 118 120 123 125 129 127 125 125 123 122 119 120 119 117 117 116 113 111 108 107 105 103 96 97 95 94 93 93 91 89 89 86
126 129 131 132 129 123 122 122 121 124 126 127 130 133 133 128 129 129 120 118 122 119 115 115 116 117 116 114 114 111 110 110 107 100 98 95 92 92 93 92 89 90 88
134 135 134 129 126 125 125 126 128 130 133 137 137 133 131 132 132 122 114 112 106 105 105 103 101 106 110 111 109 113 113 108 109 105 98 96 93 95 95 96 92 90 81
137 135 132 130 129 129 130 132 136 139 140 137 136 137 137 133 120 108 103 101 96 96 98 98 99 103 104 104 103 110 107 110 109 107 102 96 97 94 93 94 92 86 81
134 133 133 133 134 137 139 142 145 143 141 141 142 144 130 115 108 103 99 99 96 96 98 98 98 101 100 99 99 105 104 107 110 109 106 104 102 99 96 96 92 85 91
135 136 137 139 141 145 147 144 145 147 147 148 133 123 114 108 104 104 102 101 99 98 97 97 96 98 102 100 99 101 102 108 106 109 111 109 104 105 96 101 92 87 86
139 142 145 146 145 144 146 147 150 147 141 129 119 111 108 106 106 106 104 101 98 96 95 93 94 96 97 98 99 99 98 103 106 104 103 105 107 106 106 102 83 93 86
144 144 144 145 149 151 154 152 140 131 119 113 112 110 110 109 106 103 98 97 96 96 96 96 94 94 98 99 99 98 97 99 103 101 97 96 99 105 105 97 98 95 90
147 149 149 152 151 147 138 128 121 116 114 113 114 112 108 103 100 98 98 96 95 96 98 98 97 95 98 101 101 99 98 97 101 102 95 93 93 100 101 102 101 93 97
149 149 149 143 128 123 119 113 115 115 116 116 115 110 104 98 97 96 98 99 98 98 99 101 101 102 100 99 99 100 97 99 101 101 96 90 89 93 96 102 99 97 94
136 129 123 120 116 112 114 115 117 118 116 111 108 105 103 103 101 100 100 100 99 99 100 100 103 104 103 100 97 95 97 98 98 98 96 95 94 93 96 102 100 98 95
119 115 115 112 112 114 118 120 118 112 107 104 103 103 103 105 107 106 106 105 102 100 99 100 100 101 100 98 95 91 90 93 93 94 94 95 94 93 97 103 107 103 102
111 112 113 115 118 119 117 113 109 105 104 104 103 104 107 108 109 109 110 108 105 100 98 97 94 90 89 89 90 86 88 88 87 88 89 93 96 95 99 102 112 111 106
113 118 121 119 114 112 110 108 105 104 104 106 108 109 108 109 110 109 108 105 102 98 96 95 94 90 89 88 86 88 91 93 90 89 91 93 99 98 99 104 111 124 124
117 114 109 105 104 104 103 102 104 107 108 110 111 111 111 111 111 108 104 102 101 98 97 95 93 91 89 87 89 88 90 93 95 92 98 96 97 99 100 104 109 119 121
102 102 99 96 95 96 98 101 106 109 112 113 113 111 109 107 106 106 105 104 101 97 95 94 93 92 90 87 84 92 94 96 97 97 99 99 98 100 100 105 110 115 121
94 94 94 94 95 97 100 103 106 110 112 113 113 111 110 108 106 102 99 96 95 92 91 91 90 89 92 89 84 84 93 98 98 98 97 97 98 100 100 102 107 111 118
90 92 94 96 98 101 103 105 107 108 111 115 117 113 109 106 104 99 94 92 91 89 85 83 84 84 88 90 88 83 82 90 95 98 97 94 97 98 101 101 104 109 111
91 94 96 98 100 103 106 107 108 109 109 107 106 105 103 101 98 97 93 89 87 86 83 79 77 76 79 85 88 88 82 78 83 92 94 92 95 99 99 102 103 106 110
94 97 100 102 105 106 105 103 101 100 100 99 98 96 95 97 95 92 89 84 82 81 79 75 75 74 73 76 84 87 86 79 78 82 87 89 91 94 98 100 102 103 109
99 101 102 102 101 99 97 97 96 95 94 94 94 94 92 91 91 89 87 83 79 78 77 73 69 69 72 74 77 83 86 85 80 77 81 85 88 92 92 95 100 101 102
97 97 96 96 95 95 94 93 94 94 94 93 93 93 91 88 84 82 82 82 78 75 74 72 69 65 66 71 74 76 80 84 82 77 76 81 85 91 90 90 93 98 100
92 92 93 93 94 94 95 94 94 93 91 90 88 87 85 83 80 77 75 75 75 72 70 68 67 64 63 66 70 72 75 81 83 80 76 77 84 89 91 89 89 93 98
90 90 90 91 92 93 93 92 89 87 85 83 81 81 79 78 76 75 73 71 69 68 67 65 64 62 60 61 65 69 73 76 82 81 79 77 80 88 92 93 92 90 93
88 89 89 90 91 89 87 85 84 83 81 79 78 77 76 75 73 72 71 69 66 64 61 61 61 61 59 59 62 65 71 74 79 83 81 78 79 82 88 93 94 95 93
86 86 86 86 85 85 84 83 81 80 78 76 75 73 70 69 67 67 66 66 66 64 61 58 58 59 60 60 60 63 67 72 77 83 84 81 81 82 85 88 91 93 94

GFSGL_250_spd_165.txt.gz
Wind_Speed
115 115 117 117 116 116 118 118 119 122 124 125 126 129 129 128 123 118 116 116 119 121 126 129 134 126 124 125 124 122 120 114 114 109 109 106 104 106 107 106 104 104 97
119 121 123 123 124 124 125 125 126 129 130 131 131 131 127 122 120 120 122 124 128 131 135 131 131 126 124 121 118 116 112 105 93 110 103 105 105 105 109 110 108 107 105
124 124 125 128 129 128 131 133 133 132 132 131 130 126 124 124 126 128 130 134 133 129 131 133 133 124 119 115 106 101 103 97 94 106 99 101 99 101 104 110 110 110 108
133 133 133 133 133 133 133 136 136 134 131 128 127 127 129 131 133 134 131 134 136 134 132 125 122 116 106 100 96 95 96 93 94 99 98 96 96 93 100 102 104 110 110
139 139 141 140 139 139 138 135 133 132 131 131 134 137 140 136 135 137 138 135 137 128 121 117 109 104 103 101 97 97 97 98 98 99 97 98 88 91 97 98 99 105 102
141 139 138 136 136 136 134 133 133 136 139 142 143 140 140 142 144 144 143 135 122 120 111 107 106 103 104 105 104 104 103 100 98 99 97 99 98 91 97 98 94 96 98
136 136 135 134 132 135 139 141 143 144 144 144 143 146 147 148 139 135 128 120 118 108 106 107 105 108 108 107 105 104 102 101 97 96 97 98 99 100 98 98 95 94 94
133 134 138 142 142 142 144 145 145 146 148 150 151 147 139 136 132 125 120 119 112 109 107 107 108 108 106 103 101 100 99 102 100 97 94 94 100 100 101 101 98 95 91
143 144 144 146 147 145 146 148 150 153 155 152 142 142 140 131 122 119 115 113 113 115 113 111 109 107 103 98 97 97 97 100 102 101 98 93 94 97 102 103 98 100 91
146 147 147 147 149 152 151 156 156 154 147 141 141 128 123 122 119 117 116 116 117 115 113 111 108 102 101 100 99 99 97 99 100 100 99 97 95 94 101 102 100 100 94
147 148 152 153 154 156 153 148 145 138 137 126 122 120 120 120 120 122 123 122 119 115 112 109 106 104 101 99 99 97 98 99 98 96 95 97 95 93 95 98 99 98 93
157 157 154 153 149 151 146 139 131 124 123 119 119 120 122 122 126 127 124 121 116 111 108 107 105 106 105 105 104 99 97 96 94 91 92 90 91 89 90 92 93 93 93
151 146 146 151 137 126 125 121 119 121 122 122 123 124 126 126 124 122 119 116 112 109 107 106 105 105 104 103 103 101 100 101 98 93 89 90 92 92 94 93 94 97 91
137 133 129 126 122 119 120 120 123 126 127 129 128 125 122 118 116 115 112 110 111 111 111 111 108 106 104 103 102 103 101 100 99 96 92 86 89 93 100 104 101 99 98
122 121 119 119 120 122 125 127 127 127 125 122 119 116 115 113 111 111 111 110 111 111 110 110 108 108 106 104 104 104 102 98 94 94 91 85 85 89 97 106 108 106 103
121 120 119 121 124 124 123 122 119 116 115 114 113 112 110 110 111 112 112 111 109 108 108 108 107 106 103 100 100 99 99 96 93 89 84 79 79 87 93 101 111 111 108
114 116 117 116 115 113 110 109 108 110 110 110 111 111 111 111 111 109 107 107 109 107 104 101 99 97 95 92 90 90 91 91 90 88 84 80 74 80 92 95 104 110 111
106 106 104 103 103 104 106 107 107 107 107 110 111 110 108 107 107 106 104 102 102 101 99 97 95 92 91 89 87 86 87 87 87 84 83 80 76 76 83 93 91 101 110
97 97 98 99 101 101 102 102 103 103 104 104 106 107 106 106 104 103 102 100 99 99 98 97 94 90 87 84 82 81 80 80 82 82 81 78 76 77 79 86 89 89 105
93 95 97 99 101 100 100 101 103 104 103 102 100 99 99 100 100 100 100 99 98 96 94 92 89 85 81 80 78 76 75 74 75 75 78 76 75 76 79 81 84 85 94
94 94 96 97 97 99 99 97 96 97 97 97 98 98 97 96 96 96 96 95 95 93 91 88 85 80 76 73 72 71 70 69 69 69 72 73 72 74 77 79 79 84 89
93 92 92 92 92 92 93 93 94 94 95 95 96 97 95 95 94 93 92 91 89 88 85 83 81 77 74 70 67 66 66 64 65 65 67 68 69 71 73 77 78 79 85
89 89 89 90 91 91 91 92 92 92 94 95 95 94 94 93 91 89 87 85 83 82 80 77 75 73 71 68 64 64 65 61 61 62 65 65 66 67 70 74 77 78 80
86 86 87 88 89 90 91 91 92 92 93 93 91 90 88 87 86 85 82 80 78 76 74 74 71 69 67 66 62 60 61 61 59 58 62 65 64 66 69 72 75 80 79
83 84 85 87 89 90 91 91 91 89 87 86 86 85 84 82 80 79 77 75 73 72 70 69 67 66 64 63 62 58 56 57 58 57 60 63 63 64 67 70 73 77 79
85 86 87 88 88 88 87 86 84 83 83 83 82 80 78 76 74 72 71 70 69 68 67 65 63 62 61 60 59 57 54 53 54 55 57 61 62 61 64 68 71 75 77

GFSGL_250_spd_168.txt.gz
Wind_Speed
112 113 113 114 116 118 119 119 119 120 122 122 120 124 123 125 122 124 124 128 130 127 126 124 122 120 119 120 123 125 123 121 124 117 118 120 119 114 116 115 113 109 105
115 114 116 120 121 122 123 124 126 126 127 127 127 127 129 126 130 130 130 128 131 130 125 124 125 128 130 130 127 125 129 130 128 121 117 114 109 101 104 105 102 101 98
123 124 126 127 125 127 129 129 130 130 131 130 131 132 132 132 132 130 130 129 125 124 128 130 133 131 131 133 132 129 129 124 121 115 103 100 99 93 93 94 96 95 91
125 125 128 129 131 133 134 135 135 136 136 136 137 137 132 133 132 127 127 127 130 133 132 131 131 133 135 134 127 127 127 119 111 107 98 90 90 89 89 90 91 95 91
134 135 135 136 138 140 140 141 141 141 142 141 140 138 132 128 129 130 134 136 135 134 135 137 138 136 135 131 126 122 117 108 105 97 91 90 89 92 92 93 93 92 92
139 141 142 143 145 146 147 147 144 143 141 137 133 131 132 134 136 138 137 136 136 141 146 140 143 138 129 122 118 112 107 101 98 96 96 95 97 99 100 98 96 98 91
145 146 147 145 145 144 142 139 136 135 136 135 137 138 138 140 141 140 138 141 144 145 148 145 139 130 122 114 110 108 107 106 103 101 101 104 99 99 97 95 97 94 93
142 141 140 138 138 139 139 137 137 138 139 142 144 143 144 143 142 144 145 150 151 150 141 137 126 120 116 114 111 111 112 112 112 110 102 98 95 95 95 93 94 96 90
140 139 140 141 139 138 139 140 141 145 146 147 145 147 150 150 152 153 158 149 145 139 126 126 121 117 119 118 118 116 117 117 115 108 99 95 92 94 95 93 90 91 89
142 141 140 140 141 142 145 146 146 149 149 151 154 155 158 163 162 159 151 139 130 125 122 121 123 125 125 125 124 122 116 113 107 104 99 96 94 92 94 95 93 92 92
143 146 145 145 147 147 148 148 151 154 156 160 161 163 163 157 149 140 135 130 126 126 126 126 128 130 130 129 126 119 112 107 105 99 96 95 94 95 96 96 97 98 93
146 148 149 151 153 154 156 158 159 162 165 163 153 144 139 133 131 128 127 128 127 127 129 132 130 128 127 123 118 113 108 104 99 95 92 92 91 93 95 98 100 97 99
154 155 158 161 160 160 163 164 165 158 153 144 135 130 130 129 128 129 130 130 131 132 130 127 123 119 116 115 112 108 105 102 101 96 92 94 95 94 95 96 97 98 96
163 164 164 166 165 160 156 150 139 135 136 135 133 130 130 131 130 128 128 127 126 124 119 118 116 115 111 109 110 108 105 102 100 98 95 95 95 94 94 94 94 95 91
147 147 145 144 141 138 137 134 133 131 129 128 126 125 124 123 122 122 120 116 115 114 114 113 113 113 112 111 110 108 107 106 102 99 95 94 93 91 90 90 90 87 82
137 136 133 130 127 125 123 121 120 119 118 118 117 115 114 114 114 113 112 112 112 112 111 110 110 109 108 107 107 106 106 104 101 97 93 90 90 88 84 82 83 81 77
117 117 118 116 115 115 112 109 110 111 111 110 109 109 108 108 109 108 109 110 109 106 106 106 105 103 101 100 99 98 97 98 97 95 91 89 88 86 83 79 78 76 74
105 106 105 105 103 103 104 103 103 103 105 107 106 105 105 105 105 105 104 103 103 102 100 99 98 97 95 95 94 94 93 91 91 90 87 85 85 84 82 78 73 71 70
97 97 98 98 98 97 97 98 98 99 99 99 101 102 100 101 101 99 98 99 99 99 99 98 97 96 95 93 91 89 87 85 82 82 80 79 79 77 76 73 71 69 67
91 91 92 93 93 93 94 93 93 94 96 97 97 96 96 97 98 99 99 98 99 98 98 98 97 95 91 89 86 83 81 78 75 73 73 74 74 72 70 68 66 67 67
87 87 88 88 89 90 91 91 92 92 93 94 95 95 95 96 97 98 98 98 98 99 99 96 94 92 88 85 82 79 77 75 71 70 69 70 70 70 67 65 65 64 66
83 85 87 89 88 89 90 91 92 93 94 95 96 96 95 95 95 96 97 97 97 95 93 91 91 88 84 82 79 75 73 69 68 65 64 66 67 66 66 62 61 62 63
84 84 85 87 87 89 91 92 92 92 93 94 94 95 96 96 97 96 96 94 91 89 88 86 84 82 79 77 74 71 69 66 63 61 62 61 61 61 62 60 58 58 60
82 84 85 86 87 88 90 91 92 93 94 95 95 95 94 93 92 90 89 88 88 86 84 82 79 77 76 73 70 68 65 61 60 59 59 59 58 58 58 58 56 56 57
82 83 84 86 88 89 90 90 92 92 92 91 90 89 89 88 87 86 85 84 82 81 80 79 76 72 71 70 67 65 63 60 57 55 58 58 58 57 55 57 55 56 56
81 82 83 84 85 86 87 87 86 85 85 85 85 86 87 87 85 82 80 78 76 75 75 75 74 71 68 67 66 63 61 59 56 54 55 56 57 55 55 56 55 54 56

GFSGL_250_spd_171.txt.gz
Wind_Speed
102 103 105 106 108 110 112 114 115 115 115 116 117 118 119 121 122 125 125 125 126 129 131 132 131 130 130 128 125 124 121 118 117 119 115 115 116 117 121 123 120 118 114
110 111 113 114 115 117 117 118 118 118 120 121 123 124 126 127 128 129 130 132 133 135 136 135 134 130 128 126 123 121 123 126 123 120 120 122 123 122 120 120 118 112 111
118 120 120 121 121 121 121 122 124 126 126 127 128 130 133 134 135 136 137 137 139 139 138 135 131 127 125 125 125 126 130 129 126 128 128 128 126 122 119 112 103 98 93
124 125 125 126 126 127 127 129 130 132 132 134 135 135 137 138 139 140 141 139 136 134 131 132 130 128 128 129 127 128 132 133 134 135 132 129 125 115 103 92 87 86 82
128 128 128 130 131 131 132 134 137 138 139 140 141 140 140 141 140 139 138 138 137 134 132 132 133 134 133 132 135 137 139 140 139 138 129 123 114 103 95 88 81 79 83
132 133 133 133 133 136 138 140 142 143 143 142 141 142 141 139 138 137 142 137 137 135 136 137 137 136 138 141 141 143 143 140 133 127 118 108 102 98 97 96 90 87 85
138 139 140 140 141 142 143 142 144 144 144 145 144 142 142 141 140 136 137 137 139 138 138 140 142 144 147 146 147 143 137 130 121 114 110 106 103 104 103 102 102 98 93
143 144 144 145 144 144 145 147 148 146 144 142 141 141 141 142 141 140 141 140 141 144 148 149 149 151 150 146 142 134 124 121 117 115 113 111 109 110 112 107 102 97 93
145 148 150 151 149 146 144 144 143 143 144 144 144 144 144 143 143 142 145 147 151 154 153 153 152 144 141 132 124 123 121 118 117 117 117 118 117 114 110 103 100 93 86
151 151 151 149 145 144 145 144 142 144 147 146 145 145 147 148 151 151 154 157 157 155 153 146 142 135 130 130 125 123 120 119 119 117 117 117 114 111 109 103 97 92 90
146 147 145 144 144 144 145 145 147 147 149 150 151 153 154 155 156 158 158 159 148 144 138 136 134 134 132 129 126 122 119 117 115 113 111 110 106 105 104 101 96 91 87
146 146 145 145 146 147 148 149 151 154 157 157 160 159 161 162 162 156 146 142 141 138 136 133 131 126 124 122 120 119 116 112 109 105 103 102 99 98 99 99 98 97 94
146 147 147 149 152 153 155 156 159 162 163 164 163 162 158 149 144 144 141 137 131 128 124 123 119 116 115 114 113 111 108 106 103 100 98 97 95 94 95 95 94 91 90
152 152 154 157 159 162 162 162 161 160 159 155 146 146 144 139 137 134 130 125 121 118 115 115 114 112 110 109 107 106 103 101 100 98 97 96 95 94 94 91 89 89 86
156 154 153 154 152 151 150 148 147 144 143 141 137 134 130 127 124 120 116 114 112 109 108 107 106 106 105 104 103 102 100 99 99 98 95 92 91 90 89 88 86 84 82
142 138 139 137 138 137 135 130 129 128 127 124 122 120 117 114 112 110 107 105 104 101 101 101 101 101 101 103 104 103 101 99 98 98 96 94 92 90 88 86 84 81 79
119 119 120 117 117 117 116 115 116 115 113 111 109 106 104 104 103 100 98 98 100 101 101 102 101 100 99 98 97 97 97 96 95 95 95 95 92 90 87 84 80 77 78
99 101 102 103 104 104 105 104 103 101 101 101 101 99 97 95 95 95 96 99 100 99 97 96 96 95 95 94 93 92 93 93 92 91 91 91 89 87 84 81 76 72 74
89 90 91 91 91 92 94 95 96 96 97 95 93 91 92 94 94 94 94 93 93 93 93 93 93 92 91 90 90 91 91 90 88 87 85 83 81 79 77 74 69 68 69
80 80 81 84 85 87 88 89 89 89 90 91 92 91 91 90 91 92 91 90 91 92 92 93 94 94 93 92 90 88 87 85 82 81 79 78 77 74 72 70 66 64 64
73 74 76 78 79 80 82 84 85 86 86 87 88 88 89 91 93 93 93 93 94 95 95 95 95 94 92 90 87 84 83 81 78 76 75 74 71 70 66 64 62 60 61
70 72 74 75 77 78 80 81 82 84 85 87 89 90 90 91 93 95 96 96 96 96 95 93 91 90 87 86 84 82 79 76 73 71 70 69 67 64 62 60 58 56 57
71 73 75 76 77 79 80 81 83 85 87 88 90 92 92 92 93 94 94 95 94 92 90 89 88 88 86 83 79 76 74 72 69 66 66 66 64 61 59 56 54 54 55
72 74 75 77 78 80 81 83 84 86 87 89 90 91 91 92 92 91 91 91 90 90 90 88 85 82 81 78 76 73 71 70 68 66 64 65 64 62 59 55 52 51 51
75 77 78 79 80 80 82 83 84 84 85 86 88 88 89 88 88 89 88 88 89 89 85 82 81 78 77 76 74 73 71 68 66 64 63 62 62 61 59 55 51 50 49
76 76 78 79 80 81 82 83 84 85 85 85 85 85 85 85 86 86 87 86 83 81 80 78 76 74 74 74 72 70 69 67 64 61 58 58 59 58 56 54 50 49 47